LogoCoinalyze
    Ad-Free Version Inicio Mercados Tasas de Financiamiento
    Datos de futuros
    • Datos agregados (Monedas)
    • Gráficos individuales
    • Gráficos globales
    Alertas
    TA
    Bitcoin Ethereum BNB Ripple Tron ZCash Dogecoin Monero UNUS SED LEO Chainlink Cardano Stellar Lumens Bitcoin Cash Litecoin Hedera Cronos Polkadot Ethereum Classic Algorand Cosmos Quant VeChain Dash Bitcoin SV BitTorrent Terra Tezos Decred Iota The Graph THETA MultiversX Decentraland NEO Chiliz Golem Basic Attention Token Horizen Qtum 0x DigiByte Beam RIF Token FTX Token FUNToken Holo aelf Ontology Zilliqa Nano Enjin Coin Ravencoin Mask Network Verge Siacoin Status WINk Waves IoTeX iExec RLC Power Ledger Steem Kyber Network Crystal Lisk Ark Ardor WOO Network IOST WAX Icon Storj Loopring Wanchain Bitcoin Diamond Augur AdEx Bitcoin Gold OmiseGO NEM MonaCoin BitShares Ren Komodo V Systems Nuls Mithril SOLVE EOS Aion Maker Nebulas HedgeTrade Bread Fetch.ai TomoChain Polygon Fantom Waltonchain GXChain Bytom Metaverse ETP MaidSafeCoin QASH
    Ordenar por:
    Más
    • API
    • Patrones de velas
    • Donar
    • Contacto
    • Mapa del Sitio
    • Privacy Policy
    • Disclaimer
    • Theme:
    Español
    • English
    • Français
    • Русский
    • Deutsch
    • Türkçe
    • Nederlands
    • Português (BR)
    • 한국어
    • 简体中文
    • 日本語
     
    Iniciar sesión / Registrar
    Markets/ Pepe/ PEPE a USD/ PEPEUSD Bitstamp
    Trades
    WL
    Chat
    Estad.
    Noticias
    ⦷
    AAA
    0.00000378 21111243.00000000 16:25:34
    0.00000378 11346854.00000000 16:25:17
    0.00000379 484130947.39999998 16:25:04
    0.00000379 395778364.10000002 16:25:04
    0.00000378 51562500.00000000 16:25:04
    0.00000378 103846109.40000001 16:25:04
    0.00000378 7504268.10000000 16:25:04
    0.00000378 7504200.00000000 16:24:56
    0.00000377 1286472.00000000 16:24:50
    0.00000379 1000000.00000000 16:24:17
    0.00000379 23498.00000000 16:22:34
    0.00000379 38258575.20000001 16:22:23
    0.00000379 461741424.80000001 16:22:23
    0.00000379 42013300.00000000 16:22:08
    0.00000379 42502700.00000000 16:22:08
    0.00000379 49357100.00000000 16:22:08
    0.00000379 34472000.00000000 16:22:08
    0.00000379 48261600.00000000 16:22:08
    0.00000379 69529500.00000000 16:22:08
    0.00000379 112928600.00000000 16:22:08
    0.00000379 34537600.00000000 16:22:08
    0.00000379 2491974500.00000000 16:22:08
    0.00000379 173063800.00000000 16:22:08
    0.00000379 2638522.00000000 16:21:46
    0.00000379 68.10000000 16:21:33
    0.00000379 7504200.00000000 16:21:33
    0.00000379 7504200.00000000 16:21:10
    0.00000378 7504200.00000000 16:20:48
    0.00000378 13103034.00000000 16:20:43
    0.00000379 1060013.00000000 16:19:55
    0.00000378 10000000.00000000 16:19:36
    0.00000378 20298310.90000000 16:19:22
    0.00000378 7504268.10000000 16:19:22
    0.00000378 51562500.00000000 16:19:22
    0.00000379 259316597.00000000 16:19:14
    0.00000378 7504200.00000000 16:19:01
    0.00000378 7504268.10000000 16:19:01
    0.00000378 3127358.00000000 16:18:34
    0.00000378 68.10000000 16:18:16
    0.00000378 7504200.00000000 16:18:16
    0.00000378 8.60000000 16:18:07
    0.00000378 45025600.00000000 16:18:02
    0.00000378 247470123.30000001 16:18:02
    0.00000378 7504268.10000000 16:18:02
    0.00000381 888888.00000000 16:17:07
    0.00000381 300000000.00000000 16:16:41
    0.00000380 651703.00000000 16:16:18
    0.00000379 3807948.90000000 16:16:14
    0.00000380 7504268.10000000 16:16:14
    0.00000380 68.10000000 16:16:03
    0.00000380 7504200.00000000 16:16:03
    0.00000380 1287250.00000000 16:15:19
    0.00000380 7504200.00000000 16:15:00
    0.00000380 7504268.10000000 16:14:57
    0.00000380 51562500.00000000 16:14:57
    0.00000381 9163443.00000000 16:14:38
    0.00000380 120104.40000000 16:14:20
    0.00000380 2368421.00000000 16:14:10
    0.00000380 204352460.90000001 16:14:06
    0.00000380 51562500.00000000 16:14:06
    0.00000380 78715039.09999999 16:14:06
    0.00000380 387890602.00000000 16:13:31
    0.00000380 656398817.00000000 16:13:31
    0.00000380 51562500.00000000 16:13:31
    0.00000382 2579659.00000000 16:13:12
    0.00000381 7144700.00000000 16:13:09
    0.00000381 36225200.00000000 16:13:09
    0.00000381 34472600.00000000 16:13:09
    0.00000381 32719300.00000000 16:13:09
    0.00000381 10030000.00000000 16:13:09
    0.00000381 35250600.00000000 16:13:09
    0.00000381 28921200.00000000 16:13:09
    0.00000381 212959200.00000000 16:13:09
    0.00000381 86466600.00000000 16:13:09
    0.00000381 31630800.00000000 16:13:09
    0.00000381 167504900.00000000 16:13:09
    0.00000381 260655900.00000000 16:13:09
    0.00000381 39422400.00000000 16:13:09
    0.00000381 16596600.00000000 16:13:09
    0.00000382 1815216.00000000 16:13:02
    0.00000382 126943.00000000 16:12:39
    0.00000383 37600906.00000000 16:12:13
    0.00000383 78985802.80000000 16:11:49
    0.00000383 51562500.00000000 16:11:49
    0.00000383 7504200.00000000 16:11:22
    0.00000383 51562500.00000000 16:11:11
    0.00000383 7504268.10000000 16:11:11
    0.00000383 456919060.00000000 16:11:11
    0.00000383 1303780964.70000005 16:11:11
    0.00000383 7504200.00000000 16:10:16
    0.00000383 7504268.10000000 16:10:14
    0.00000383 2344009.00000000 16:10:01
    0.00000384 128982994.00000000 16:09:53
    0.00000382 4450261.00000000 16:09:26
    0.00000383 30820100.00000000 16:09:18
    0.00000383 44196300.00000000 16:09:18
    0.00000383 3903900.00000000 16:09:18
    0.00000383 12427500.00000000 16:09:18
    0.00000383 147355100.00000000 16:09:18
    0.00000383 100500300.00000000 16:09:18
    Desconectar
    AAA
    Ayuda
    🙂 🤣 😎 🤗 😛 😉 😜 🤑 🤔 😑 😴 😕 🙃 😲 😇 🙁 😢 😬 😟 😠 🕺 🏃 💪 ✌ 👌 👍 👎 👏 👋 🤝 🍺 🍻 🐋 🐟 🦈 🗽 🚄 ✈ 🛑 🚀 🏦 🌚 ⭐ 🌞 ⚡ 🏆 💰 💲 🔨 ❓ ❗ 💯 🔶 🏁
    ☺
    Iniciar sesión o Registrar y chatea
    24 Horas
    Variación
    +10.53%
    Volumen
    253,929,550,743
    Máx.
    0.00000387
    Mín.
    0.00000336
    7 Días
    Variación
    -2.07%
    Volumen
    1,688,130,590,486
    Máx.
    0.00000401
    Mín.
    0.00000336
    30 Días
    Variación
    +30.34%
    Volumen
    5,281,299,963,708
    Máx.
    0.00000455
    Mín.
    0.00000253
    DOGE, SHIB, PEPE, or Something Else: Which Meme Coin Can Make History in September? (3 AIs Weigh In)
    "DOGE remains the most likely to record the largest move in dollar terms and lead the entire sector," ChatGPT stated.
    cryptopotato.com
    Sept 3, 2026 00:41
    Pepe price rallies 25% as whale demand and futures interest surge
    Key takeaways Pepe has gained 25% this week, including a combined 22% advance over the previous two days. Seven whale transactions worth more than $1 million each occurred Thursday, the highest...
    coinjournal.net
    Aug 21, 2026 08:41
    PEPE Supply on Exchanges Just Took a Massive Hit – What’s Next?
    A drop in PEPE exchange balances has added to bullish expectations despite muted trader interest.
    cryptopotato.com
    Aug 6, 2026 20:02
    PEPE Exchange Outflows Hit Nearly 2-Year High as Whales Accumulate
    Pepe (PEPE) recorded its largest single-day exchange outflow since November 2024, with 4.54 trillion tokens leaving trading platforms, signaling that holders are moving supply away from immediate...
    beincrypto.com
    Aug 6, 2026 04:57
    Meme Coin Based on White House Shooter Conspiracy Rallies 320%
    $HENRY surged 300% after a 2023 Pepe tweet appeared to name the White House shooter, fueling a viral time-travel meme. The post Meme Coin Based on White House Shooter Conspiracy Rallies 320%...
    beincrypto.com
    Apr 27, 2026 16:11
    PEPE surges 4% as market sentiment improves, eyes Key resistance breakout
    Key takeaways Pepe extends gains on Wednesday, stretching its rally from the 50-day EMA. Derivatives data show heightened retail activity as risk-on sentiment returns to the market. Pepe (PEPE) is...
    coinjournal.net
    Apr 22, 2026 11:44
    Why The PEPE Price Could Stage A 55X Rally To Reach New $0.0001 ATH
    The PEPE price has now started to edge back into bullish conversations after the recent inflows into the crypto market. The last time PEPE’s weekly chart printed the kind of structure now...
    newsbtc.com
    Apr 21, 2026 15:30
    Pepe (PEPE) surges 9%, drawing interest from whales
    Key takeaways PEPE is up 9% in the last 24 hours, making it one of the best performers among the top 50 cryptocurrencies by market cap. The rally comes amid renewed interest from whales and retail...
    coinjournal.net
    Apr 16, 2026 07:40
    Murad Says SPX6900 (SPX) Is Primed for a Rally — Is He Right This Time?
    Crypto influencer Murad Mahmudov claims SPX6900 (SPX) is stabilizing at the same market cap level where Dogecoin (DOGE) and Pepe (PEPE) consolidated before their explosive rallies. The...
    beincrypto.com
    Apr 5, 2026 21:36
    The Shiba Inu Of This Cycle: Analyst Shares Why It Is Better To Buy PEPE Now
    In the bull market cycle of 2021-2022, the Shiba Inu meme coin made waves in a way that changed the face of meme coins forever. This came after Dogecoin’s initial 36,000% rally, and Shiba Inu...
    newsbtc.com
    Apr 4, 2026 07:30
    PEPE Explodes by 18% Amid Altcoin Rally, BTC Tapped $74K: Market Watch
    The frog-themed meme coin is today's biggest gainer, followed by TAO, DOT, and BONK.
    cryptopotato.com
    Mar 16, 2026 10:56
    Should PEPE traders brace for volatility as short squeeze potential builds?
    The memecoin market has seen its collective market capitalization drop by 48% over the past year, and 6.9% over the past month, according to CoinMarketCap. According to Glassnode, the memecoin...
    ambcrypto.com
    Mar 7, 2026 18:00
    Simplemente teclea el comando en el chat. Sustituir nick1 por el apodo real.
    • /ignore nick1 Ignorar un usuario del chat
    • /unignore nick1 Dejar de ignorar un usuario del chat
    • /ignorelist Mostrar usuarios del chat que has ignorado